Regional Weather Roundup
Issued by NWS

Home | Current Version | Previous Version | Graphics & Text | Print | Product List | Glossary On
Versions: 1 2 3 4 5 6 7 8 9 10 11 12 13 14 15 16 17 18 19 20 21 22 23 24 25 26 27 28 29 30 31 32 33 34 35 36 37 38 39 40 41 42 43 44 45 46 47 48 49 50
135
ASUS43 KDTX 060810
RWRMI
MICHIGAN HOURLY REGIONAL WEATHER ROUNDUP
NATIONAL WEATHER SERVICE DETROIT/PONTIAC MI
300 AM EST SAT FEB 06 2016

NOTE: "FAIR" INDICATES FEW OR NO CLOUDS BELOW 12,000 FEET WITH NO
SIGNIFICANT WEATHER AND/OR OBSTRUCTION TO VISIBILITY.

MIZ047>049-052>055-059>063-066>070-074>076-081>083-060900-
SOUTHEAST LOWER MICHIGAN

CITY           SKY/WX    TMP DP  RH WIND       PRES   REMARKS
ADRIAN         CLOUDY    36  21  54 W6        30.29R WCI  31
ALMA           CLOUDY    25  20  82 SW5       30.25S WCI  19
ANN ARBOR      CLOUDY    23  19  85 W6        30.26S WCI  16
BAD AXE        CLOUDY    27  24  85 W5        30.23R WCI  22
CARO           CLOUDY    26  22  84 W5        30.23S WCI  21
DETROIT CITY   MOCLDY    29  19  66 W7        30.26R WCI  22
DETROIT        CLOUDY    28  19  69 W10       30.28R WCI  19
FLINT          PTCLDY    27  17  66 W7        30.25S WCI  19
GROSSE ILE     CLOUDY    28  21  74 W7        30.26R WCI  21
HILLSDALE      CLOUDY    23  21  90 SW3       30.26S
HOWELL         CLEAR     24  19  84 W3        30.24F

CITY           SKY/WX    TMP DP  RH WIND       PRES   REMARKS
JACKSON        CLEAR     23  18  81 SW5       30.26S WCI  17
LAMBERTVILLE   CLOUDY    27  23  85 W6        30.29R WCI  21
LANSING        CLEAR     21  16  81 SW5       30.26F WCI  15
LAPEER         MOCLDY    27  22  82 W9        30.24R WCI  18
MASON          CLEAR     23  19  86 CALM      30.26S
MONROE         CLOUDY    29  22  75 NW8       30.27S WCI  21
MT. CLEMENS    CLOUDY    32  25  74 W12       30.23S WCI  23
PONTIAC        CLOUDY    26  20  77 W13       30.23S WCI  15
PORT HOPE        N/A     27  22  81 W3        30.21R
PORT HURON     CLOUDY    30  27  86 CALM      30.24S
TRI CITIES     CLOUDY    26  19  74 SW6       30.24F WCI  19
MIDLAND        MOCLDY    26  17  69 SW5       30.23F WCI  20
TROY           CLOUDY    29  22  74 W13       30.27S WCI  19
SAGINAW HB     CLOUDY    28  23  80 SW7       30.24F WCI  21
$$
MIZ043>046-050>051-056>058-064>065-071>073-077>080-060900-
SOUTHWEST LOWER MICHIGAN

CITY           SKY/WX    TMP DP  RH WIND       PRES   REMARKS
BATTLE CREEK   PTCLDY    21  18  88 SW7       30.27R WCI  12
BENTON HARBOR  CLOUDY    27  23  85 S7        30.29S FOG     WCI  19
BIG RAPIDS     CLOUDY    22  19  87 CALM      30.20S
COLDWATER      CLOUDY    24  22  92 SW6       30.28S WCI  17
FREMONT        MOCLDY    22  18  83 CALM      30.23S
HOLLAND        PTCLDY    20  16  84 S3        30.27S
GRAND RAPIDS   MOCLDY    20  17  88 S7        30.26S WCI  11
IONIA          MOCLDY    21  18  88 S7        30.24F WCI  12
KALAMAZOO      CLEAR     22  18  85 S6        30.27S WCI  14
LUDINGTON      CLOUDY    31  22  70 SW12      30.21F WCI  22
MARSHALL       CLOUDY    24  21  87 SW3       30.27R
MOUNT PLEASANT CLOUDY    25  17  71 SW5       30.22F WCI  20
MUSKEGON       PTCLDY    22  16  78 SE5       30.25F WCI  16
SOUTH HAVEN    PTCLDY    26  23  91 SW5       30.27F WCI  20
$$
MIZ016>042-060900-
NORTHERN LOWER MICHIGAN

CITY           SKY/WX    TMP DP  RH WIND       PRES   REMARKS
ALPENA         CLOUDY    22  16  78 SW7       30.17F WCI  13
BEAVER ISLAND  CLOUDY    31  22  69 SW16G24   30.12F WCI  19
BELLAIRE       CLOUDY    24  18  79 S3        30.19S
CADILLAC       CLOUDY    21  17  83 S8        30.15S WCI  12
CHARLEVOIX     CLOUDY    28  22  78 SW7       30.17F WCI  20
FRANKFORT      CLOUDY    32  22  66 W13       30.18S WCI  22
GAYLORD        CLOUDY    20  15  81 SW12      30.13S WCI   8
GRAYLING       CLOUDY    19  15  82 SW3       30.16F
HARBOR SPRINGS CLOUDY    24  19  81 SW7       30.14F WCI  16
HOUGHTON LAKE  CLOUDY    20  15  81 SW5       30.17F WCI  13
MANISTEE       CLOUDY    21  16  79 CALM      30.20F
OSCODA         CLOUDY    24  20  87 SW3       30.20S
PELLSTON       CLOUDY    25  18  74 S9        30.13F WCI  15
ROGERS CITY    MOCLDY    22  15  77 SW9       30.16S WCI  11
TRAVERSE CITY  CLOUDY    25  17  72 S3        30.17F
$$
MIZ007>008-015-060900-
EASTERN UPPER MICHIGAN

CITY           SKY/WX    TMP DP  RH WIND       PRES   REMARKS
KINROSS        CLOUDY    25  23  93 S7        30.08F WCI  17
MACKINAC ISLAN FLURRIES  25  21  84 SW12G18   30.10F WCI  14
NEWBERRY       SNOW      24  20  87 SW15G24   30.06F VSB 1/2 WCI  11
S. S. MARIE    CLOUDY    22  17  81 S3        30.07F
MUNISING         N/A     25  15  66 S7        30.06F WCI  17
$$
MIZ004>006-011>014-085-060900-
CENTRAL UPPER MICHIGAN

CITY           SKY/WX    TMP DP  RH WIND       PRES   REMARKS
MANISTIQUE     FLURRIES  26  19  75 SW8       30.10S WCI  18
ESCANABA       CLOUDY    25  16  68 SW13G18   30.10F WCI  13
MENOMINEE      CLOUDY    25  18  74 W7        30.15R WCI  17
SAWYER-GWINN   CLOUDY    22  17  79 SW7       30.04R WCI  14
$$
MIZ001>003-009>011-084-060900-
WESTERN UPPER MICHIGAN

CITY           SKY/WX    TMP DP  RH WIND       PRES   REMARKS
IRON MOUNTAIN  CLOUDY    24  15  68 W9        30.07S WCI  14
HOUGHTON       CLOUDY    25  17  72 W17       30.00R WCI  12
COPPER HARBOR    N/A     30  22  72 N20G26    30.00S WCI  17
IRONWOOD       CLOUDY    21  18  86 SW10      30.04S WCI  10
$$

ABBREVIATIONS USED IN REMARKS
   TC - TEMPERATURE IN CELSIUS
  WCI - WIND CHILL INDEX
   HX - HEAT INDEX
  VSB - VISIBILITY





USA.gov is the U.S. government's official web portal to all federal, state and local government web resources and services.